TimeCST,TemperatureF,Dew PointF,Humidity,Sea Level PressureIn,VisibilityMPH,Wind Direction,Wind SpeedMPH,Gust SpeedMPH,PrecipitationIn,Events,Conditions,WindDirDegrees,DateUTC
12:15 AM,35.6,21.2,56,30.02,-9999.0,NW,9.2,21.9,N/A,,Overcast,310,2013-03-06 06:15:00
12:35 AM,35.6,17.6,48,30.03,-9999.0,NW,5.8,21.9,N/A,,Overcast,320,2013-03-06 06:35:00
12:55 AM,33.8,17.6,52,30.04,-9999.0,NW,5.8,18.4,N/A,,Mostly Cloudy,310,2013-03-06 06:55:00
1:15 AM,33.8,17.6,52,30.05,-9999.0,NW,6.9,18.4,N/A,,Scattered Clouds,320,2013-03-06 07:15:00
1:35 AM,33.8,17.6,52,30.05,-9999.0,WNW,8.1,-,N/A,,Scattered Clouds,300,2013-03-06 07:35:00
1:55 AM,32.0,17.6,55,30.05,-9999.0,WNW,8.1,28.8,N/A,,Mostly Cloudy,300,2013-03-06 07:55:00
2:15 AM,32.0,17.6,55,30.04,-9999.0,WNW,9.2,16.1,N/A,,Scattered Clouds,300,2013-03-06 08:15:00
2:35 AM,32.0,17.6,55,30.04,-9999.0,WNW,9.2,16.1,N/A,,Mostly Cloudy,300,2013-03-06 08:35:00
2:55 AM,32.0,17.6,55,30.04,-9999.0,WNW,13.8,18.4,N/A,,Overcast,300,2013-03-06 08:55:00
3:15 AM,33.8,17.6,52,30.04,-9999.0,WNW,10.4,21.9,N/A,,Overcast,300,2013-03-06 09:15:00
3:35 AM,33.8,19.4,56,30.04,-9999.0,NW,16.1,25.3,N/A,,Overcast,320,2013-03-06 09:35:00
3:55 AM,33.8,19.4,56,30.05,-9999.0,NW,11.5,20.7,N/A,,Overcast,310,2013-03-06 09:55:00
4:15 AM,33.8,19.4,56,30.06,-9999.0,NW,11.5,18.4,N/A,,Overcast,310,2013-03-06 10:15:00
4:35 AM,33.8,19.4,56,30.06,-9999.0,NW,10.4,25.3,N/A,,Overcast,320,2013-03-06 10:35:00
4:55 AM,33.8,19.4,56,30.07,-9999.0,NW,9.2,21.9,N/A,,Overcast,320,2013-03-06 10:55:00
5:15 AM,33.8,19.4,56,30.07,-9999.0,WNW,10.4,21.9,N/A,,Overcast,290,2013-03-06 11:15:00
5:35 AM,33.8,19.4,56,30.09,-9999.0,NW,12.7,26.5,N/A,,Overcast,320,2013-03-06 11:35:00
5:55 AM,33.8,21.2,60,30.10,-9999.0,NW,10.4,20.7,N/A,,Overcast,320,2013-03-06 11:55:00
6:15 AM,33.8,21.2,60,30.10,-9999.0,NW,13.8,25.3,N/A,,Overcast,310,2013-03-06 12:15:00
6:35 AM,33.8,21.2,60,30.11,-9999.0,NW,8.1,19.6,N/A,,Overcast,320,2013-03-06 12:35:00
6:55 AM,33.8,23.0,65,30.13,-9999.0,NNW,11.5,21.9,N/A,Rain,Light Rain,340,2013-03-06 12:55:00
7:15 AM,33.8,23.0,65,30.13,-9999.0,NW,6.9,-,N/A,Rain,Light Rain,320,2013-03-06 13:15:00
7:35 AM,33.8,23.0,65,30.15,-9999.0,NW,6.9,19.6,N/A,Rain,Light Rain,310,2013-03-06 13:35:00
7:55 AM,33.8,23.0,65,30.17,-9999.0,NW,8.1,19.6,N/A,Rain,Light Rain,320,2013-03-06 13:55:00
8:15 AM,35.6,23.0,60,30.17,-9999.0,NNW,9.2,18.4,N/A,,Overcast,330,2013-03-06 14:15:00
8:35 AM,35.6,23.0,60,30.18,-9999.0,WNW,9.2,17.3,N/A,,Overcast,290,2013-03-06 14:35:00
8:55 AM,35.6,23.0,60,30.18,-9999.0,NW,12.7,18.4,N/A,,Overcast,310,2013-03-06 14:55:00
9:15 AM,35.6,23.0,60,30.19,-9999.0,NNW,9.2,18.4,N/A,,Overcast,330,2013-03-06 15:15:00
9:35 AM,35.6,23.0,60,30.20,-9999.0,NNW,15.0,21.9,N/A,,Overcast,340,2013-03-06 15:35:00
9:55 AM,35.6,23.0,60,30.20,-9999.0,NNW,11.5,21.9,N/A,,Overcast,330,2013-03-06 15:55:00
10:15 AM,37.4,23.0,56,30.21,-9999.0,NNW,10.4,16.1,N/A,,Overcast,340,2013-03-06 16:15:00
10:35 AM,39.2,23.0,52,30.20,-9999.0,NW,16.1,25.3,N/A,,Overcast,320,2013-03-06 16:35:00
10:55 AM,39.2,24.8,56,30.20,-9999.0,North,16.1,26.5,N/A,,Overcast,350,2013-03-06 16:55:00
11:15 AM,39.2,24.8,56,30.20,-9999.0,NNW,17.3,24.2,N/A,,Scattered Clouds,340,2013-03-06 17:15:00
11:35 AM,39.2,24.8,56,30.21,-9999.0,NNW,16.1,24.2,N/A,,Mostly Cloudy,340,2013-03-06 17:35:00
11:55 AM,39.2,24.8,56,30.22,-9999.0,NNW,15.0,24.2,N/A,,Overcast,330,2013-03-06 17:55:00
12:15 PM,39.2,24.8,56,30.22,-9999.0,NNW,12.7,24.2,N/A,,Overcast,340,2013-03-06 18:15:00
12:35 PM,39.2,24.8,56,30.21,-9999.0,NNW,9.2,26.5,N/A,,Overcast,340,2013-03-06 18:35:00
12:55 PM,39.2,24.8,56,30.21,-9999.0,NNW,10.4,17.3,N/A,,Overcast,330,2013-03-06 18:55:00
1:15 PM,41.0,26.6,57,30.20,-9999.0,NNW,15.0,20.7,N/A,,Overcast,340,2013-03-06 19:15:00
1:35 PM,41.0,26.6,57,30.20,-9999.0,North,9.2,21.9,N/A,,Mostly Cloudy,10,2013-03-06 19:35:00
1:55 PM,41.0,26.6,57,30.20,-9999.0,North,9.2,18.4,N/A,,Overcast,350,2013-03-06 19:55:00
2:15 PM,42.8,26.6,53,30.21,-9999.0,North,13.8,19.6,N/A,,Mostly Cloudy,360,2013-03-06 20:15:00
2:35 PM,42.8,26.6,53,30.21,-9999.0,North,11.5,18.4,N/A,,Overcast,350,2013-03-06 20:35:00
2:55 PM,42.8,26.6,53,30.21,-9999.0,NNW,9.2,18.4,N/A,,Overcast,340,2013-03-06 20:55:00
3:15 PM,41.0,26.6,57,30.22,-9999.0,North,12.7,17.3,N/A,,Overcast,350,2013-03-06 21:15:00
3:35 PM,41.0,26.6,57,30.22,-9999.0,NNW,10.4,18.4,N/A,,Overcast,340,2013-03-06 21:35:00
4:15 PM,41.0,26.6,57,30.22,-9999.0,North,9.2,16.1,N/A,,Mostly Cloudy,360,2013-03-06 22:15:00
4:35 PM,41.0,24.8,53,30.23,-9999.0,North,11.5,18.4,N/A,,Partly Cloudy,360,2013-03-06 22:35:00
4:55 PM,41.0,26.6,57,30.23,-9999.0,NNW,8.1,18.4,N/A,,Partly Cloudy,340,2013-03-06 22:55:00
5:15 PM,41.0,24.8,53,30.24,-9999.0,North,10.4,-,N/A,,Partly Cloudy,360,2013-03-06 23:15:00
5:35 PM,41.0,24.8,53,30.24,-9999.0,North,8.1,-,N/A,,Clear,360,2013-03-06 23:35:00
5:55 PM,39.2,24.8,56,30.24,-9999.0,North,8.1,17.3,N/A,,Clear,360,2013-03-06 23:55:00
6:15 PM,39.2,24.8,56,30.25,-9999.0,North,8.1,-,N/A,,Scattered Clouds,10,2013-03-07 00:15:00
6:35 PM,39.2,24.8,56,30.25,-9999.0,North,5.8,-,N/A,,Overcast,10,2013-03-07 00:35:00
6:55 PM,37.4,24.8,60,30.27,-9999.0,NNE,9.2,-,N/A,,Overcast,20,2013-03-07 00:55:00
7:15 PM,37.4,24.8,60,30.26,-9999.0,North,5.8,-,N/A,,Overcast,360,2013-03-07 01:15:00
7:35 PM,37.4,24.8,60,30.26,-9999.0,North,4.6,-,N/A,,Mostly Cloudy,360,2013-03-07 01:35:00
7:55 PM,37.4,24.8,60,30.26,-9999.0,NNE,6.9,-,N/A,,Overcast,20,2013-03-07 01:55:00
8:35 PM,35.6,24.8,65,30.26,-9999.0,NNE,6.9,-,N/A,,Mostly Cloudy,20,2013-03-07 02:35:00
8:55 PM,35.6,24.8,65,30.26,-9999.0,NNE,9.2,-,N/A,,Partly Cloudy,20,2013-03-07 02:55:00
9:15 PM,33.8,24.8,70,30.26,-9999.0,NNE,8.1,-,N/A,,Partly Cloudy,30,2013-03-07 03:15:00
9:35 PM,33.8,24.8,70,30.26,-9999.0,NE,8.1,-,N/A,,Clear,40,2013-03-07 03:35:00
9:55 PM,32.0,24.8,75,30.27,-9999.0,North,4.6,-,N/A,,Partly Cloudy,360,2013-03-07 03:55:00
10:15 PM,32.0,24.8,75,30.27,-9999.0,NNE,3.5,-,N/A,,Partly Cloudy,20,2013-03-07 04:15:00
10:35 PM,32.0,24.8,75,30.27,-9999.0,North,3.5,-,N/A,,Partly Cloudy,350,2013-03-07 04:35:00
10:55 PM,30.2,24.8,80,30.27,-9999.0,Calm,Calm,-,N/A,,Clear,0,2013-03-07 04:55:00
11:15 PM,30.2,24.8,80,30.27,-9999.0,Calm,Calm,-,N/A,,Clear,0,2013-03-07 05:15:00
11:35 PM,30.2,24.8,80,30.26,-9999.0,NNE,4.6,-,N/A,,Clear,30,2013-03-07 05:35:00
11:55 PM,32.0,24.8,75,30.26,-9999.0,North,5.8,-,N/A,,Clear,360,2013-03-07 05:55:00